| time (UTC) | temp C | wind direction | speed KPH | gust KPH | rain 1hr cm | rain 24hr cm | rain mn cm | humidity % | barometer mb |
| 20260906090748 | 30 | 0.0 | 0.0 | 0.00 | 0.00 | 0.00 | 45 | 1015.8 | |
| 20260906084227 | 29 | 0.0 | 0.0 | 0.00 | 0.00 | 0.00 | 46 | 1015.8 | |
| 20260906081652 | 29 | 0.0 | 0.0 | 0.00 | 0.00 | 0.00 | 50 | 1015.8 | |
| 20260906075151 | 29 | 0.0 | 0.0 | 0.00 | 0.00 | 0.00 | 56 | 1015.8 | |
| 20260906072632 | 29 | 0.0 | 0.0 | 0.00 | 0.00 | 0.00 | 52 | 1015.6 | |
| 20260906070116 | 28 | 0.0 | 0.0 | 0.00 | 0.00 | 0.00 | 53 | 1015.3 | |
| 20260906063557 | 28 | 0.0 | 0.0 | 0.00 | 0.00 | 0.00 | 57 | 1015.0 | |
| 20260906061036 | 28 | 0.0 | 0.0 | 0.00 | 0.00 | 0.00 | 57 | 1014.8 | |
| 20260906054515 | 28 | 0.0 | 0.0 | 0.00 | 0.00 | 0.00 | 52 | 1014.7 | |
| 20260906051951 | 28 | 0.0 | 0.0 | 0.00 | 0.00 | 0.00 | 51 | 1014.5 | |
| 20260906041714 | 29 | 0.0 | 0.0 | 0.00 | 0.00 | 0.00 | 50 | 1013.9 | |
| 20260906035149 | 29 | 0.0 | 0.0 | 0.00 | 0.00 | 0.00 | 50 | 1013.6 | |
| 20260906032629 | 29 | 0.0 | 0.0 | 0.00 | 0.00 | 0.00 | 50 | 1013.5 | |
| 20260906030113 | 29 | 0.0 | 0.0 | 0.00 | 0.00 | 0.00 | 50 | 1013.5 | |
| 20260906023608 | 29 | 0.0 | 0.0 | 0.00 | 0.00 | 0.00 | 50 | 1013.2 | |
| 20260906021038 | 29 | 0.0 | 0.0 | 0.00 | 0.00 | 0.00 | 49 | 1013.3 | |
| 20260906014520 | 29 | 0.0 | 0.0 | 0.00 | 0.00 | 0.00 | 49 | 1013.4 | |
| 20260906012001 | 29 | 0.0 | 0.0 | 0.00 | 0.00 | 0.00 | 49 | 1013.1 | |
| 20260906005436 | 29 | 0.0 | 0.0 | 0.00 | 0.00 | 0.00 | 49 | 1013.0 | |
| 20260906002917 | 29 | 0.0 | 0.0 | 0.00 | 0.00 | 0.00 | 49 | 1013.1 | |
| 20260906000356 | 29 | 0.0 | 0.0 | 0.00 | 0.00 | 0.00 | 49 | 1013.3 | |
| 20260905233832 | 29 | 0.0 | 0.0 | 0.00 | 0.00 | 0.00 | 49 | 1013.4 | |
| 20260905231310 | 29 | 0.0 | 0.0 | 0.00 | 0.00 | 0.00 | 49 | 1013.8 | |
| 20260905224756 | 29 | 0.0 | 0.0 | 0.00 | 0.00 | 0.00 | 49 | 1013.8 | |
| 20260905222235 | 29 | 0.0 | 0.0 | 0.00 | 0.00 | 0.00 | 49 | 1013.8 | |
| 20260905215719 | 29 | 0.0 | 0.0 | 0.00 | 0.00 | 0.00 | 49 | 1013.9 | |
| 20260905213159 | 29 | 0.0 | 0.0 | 0.00 | 0.00 | 0.00 | 49 | 1014.3 | |
| 20260905210620 | 29 | 0.0 | 0.0 | 0.00 | 0.00 | 0.00 | 49 | 1014.4 | |
| 20260905204115 | 29 | 0.0 | 0.0 | 0.00 | 0.00 | 0.00 | 48 | 1014.4 | |
| 20260905201552 | 29 | 0.0 | 0.0 | 0.00 | 0.00 | 0.00 | 48 | 1014.5 | |
| 20260905195029 | 29 | 0.0 | 0.0 | 0.00 | 0.00 | 0.00 | 48 | 1014.7 | |
| 20260905192509 | 29 | 0.0 | 0.0 | 0.00 | 0.00 | 0.00 | 48 | 1014.6 | |
| 20260905185948 | 29 | 0.0 | 0.0 | 0.00 | 0.00 | 0.00 | 48 | 1014.6 | |
| 20260905183429 | 29 | 0.0 | 0.0 | 0.00 | 0.00 | 0.00 | 47 | 1014.5 | |
| 20260905180856 | 29 | 0.0 | 0.0 | 0.00 | 0.00 | 0.00 | 47 | 1014.3 | |
| 20260905174349 | 29 | 0.0 | 0.0 | 0.00 | 0.00 | 0.00 | 47 | 1014.1 | |
| 20260905171828 | 29 | 0.0 | 0.0 | 0.00 | 0.00 | 0.00 | 47 | 1013.9 | |
| 20260905161831 | 29 | 0.0 | 0.0 | 0.00 | 0.00 | 0.00 | 46 | 1014.1 | |
| 20260905155314 | 30 | 0.0 | 0.0 | 0.00 | 0.00 | 0.00 | 45 | 1014.2 | |
| 20260905152753 | 30 | 0.0 | 0.0 | 0.00 | 0.00 | 0.00 | 45 | 1014.3 | |
| 20260905150233 | 30 | 0.0 | 0.0 | 0.00 | 0.00 | 0.00 | 44 | 1014.4 | |
| 20260905143715 | 30 | 0.0 | 0.0 | 0.00 | 0.00 | 0.00 | 44 | 1014.4 | |
| 20260905141155 | 30 | 0.0 | 0.0 | 0.00 | 0.00 | 0.00 | 43 | 1014.4 | |
| 20260905134632 | 30 | 0.0 | 0.0 | 0.00 | 0.00 | 0.00 | 43 | 1014.5 | |
| 20260905132113 | 30 | 0.0 | 0.0 | 0.00 | 0.00 | 0.00 | 43 | 1014.6 | |
| 20260905125557 | 30 | 0.0 | 0.0 | 0.00 | 0.00 | 0.00 | 42 | 1014.8 | |
| 20260905123039 | 30 | 0.0 | 0.0 | 0.00 | 0.00 | 0.00 | 42 | 1015.0 | |
| 20260905120518 | 30 | 0.0 | 0.0 | 0.00 | 0.00 | 0.00 | 41 | 1015.3 | |
| 20260905114003 | 30 | 0.0 | 0.0 | 0.00 | 0.00 | 0.00 | 40 | 1015.5 | |
| 20260905111425 | 30 | 0.0 | 0.0 | 0.00 | 0.00 | 0.00 | 40 | 1015.6 | |
| 20260905104842 | 30 | 0.0 | 0.0 | 0.00 | 0.00 | 0.00 | 39 | 1015.7 | |
| 20260905102339 | 30 | 0.0 | 0.0 | 0.00 | 0.00 | 0.00 | 38 | 1015.7 | |
| 20260905095822 | 29 | 0.0 | 0.0 | 0.00 | 0.00 | 0.00 | 38 | 1015.8 | |
| 20260905093304 | 29 | 0.0 | 0.0 | 0.00 | 0.00 | 0.00 | 37 | 1016.0 |